Bellingham, WA
on Thursday, January 17, 2013

Thursday
Previous Day Next Day
Daily Summary
 ActualAverageRecord
Temperature
Mean Temperature °F 39°F  
Max Temperature 44°F 46°F 59°F (1977)
Min Temperature 25°F 33°F 7°F (1950)
Degree Days
Heating Degree Days 30 26  
Month to date heating degree days 448  
Cooling Degree Days 0 0  
Month to date cooling degree days 0  
Year to date cooling degree days 0  
Moisture
Dew Point 28°F   
Average Humidity 89    
Maximum Humidity 100    
Minimum Humidity 58    
Precipitation
Precipitation 0.00 in 0.17 in 1.45 in (2005)
Month to date precipitation 2.63  
Year to date precipitation 2.63  
Wind
Wind Speed 1 mph   
Max Wind Speed 5 mph   
Max Gust Speed mph   
Visibility 8 miles   
Events Fog   

Key: T is trace of precipitation, MM is missing value
Source: NWS Daily Summary
Time(PST)TemperatureDew PointHumidity Pressure Visibility Wind DirectionWind SpeedGust SpeedPrecipitationEvents Conditions
12:53 AM 28.9°F 27.0°F 92% 30.57 in 9.0 miles Calm Calm - N/A   Clear
1:53 AM 27.0°F 27.0°F 100% 30.56 in 7.0 miles Calm Calm - N/A   Clear
2:53 AM 28.0°F 27.0°F 96% 30.54 in 7.0 miles North 4.6 mph - N/A   Clear
3:53 AM 28.4°F 26.6°F 93% 30.49 in 6.0 miles Calm Calm - N/A   Clear
4:53 AM 27.0°F 25.0°F 92% 30.51 in 6.0 miles North 3.5 mph - N/A   Clear
5:53 AM 26.1°F 25.0°F 96% 30.50 in 7.0 miles Calm Calm - N/A   Clear
6:53 AM 27.0°F 26.1°F 96% 30.48 in 8.0 miles Calm Calm - N/A   Clear
7:53 AM 25.0°F 24.1°F 96% 30.48 in 8.0 miles NNW 3.5 mph - N/A   Clear
8:53 AM 28.0°F 27.0°F 96% 30.49 in 10.0 miles Calm Calm - N/A   Clear
9:53 AM 32.0°F 30.0°F 92% 30.49 in 10.0 miles Calm Calm - N/A   Clear
10:53 AM 35.1°F 30.9°F 85% 30.48 in 10.0 miles NNE 3.5 mph - N/A   Clear
11:53 AM 37.9°F 32.0°F 79% 30.46 in 10.0 miles North 4.6 mph - N/A   Clear
12:53 PM 41.0°F 32.0°F 70% 30.43 in 10.0 miles Calm Calm - N/A   Clear
1:53 PM 43.0°F 30.9°F 62% 30.39 in 10.0 miles Calm Calm - N/A   Clear
2:53 PM 44.1°F 30.0°F 58% 30.36 in 10.0 miles Calm Calm - N/A   Clear
3:53 PM 39.0°F 30.0°F 70% 30.35 in 10.0 miles South 3.5 mph - N/A   Clear
4:53 PM 34.0°F 30.9°F 89% 30.36 in 10.0 miles Calm Calm - N/A   Clear
5:53 PM 30.9°F 30.0°F 96% 30.35 in 10.0 miles Calm Calm - N/A   Clear
6:53 PM 30.9°F 28.9°F 92% 30.35 in 10.0 miles Calm Calm - N/A   Clear
7:53 PM 28.9°F 28.0°F 96% 30.35 in 10.0 miles Calm Calm - N/A   Clear
8:53 PM 28.9°F 28.0°F 96% 30.35 in 10.0 miles Calm Calm - N/A   Clear
8:56 PM 28.4°F 26.6°F 93% 30.31 in 0.5 miles Calm Calm - N/A Fog Light Freezing Fog
9:03 PM 28.4°F 26.6°F 93% 30.31 in 8.0 miles Calm Calm - N/A   Clear
9:53 PM 28.0°F 26.1°F 92% 30.34 in 8.0 miles Calm Calm - N/A   Clear
10:53 PM 27.0°F 25.0°F 92% 30.33 in 10.0 miles Calm Calm - N/A   Clear
10:55 PM 28.4°F 24.8°F 86% 30.30 in 0.5 miles Calm Calm - N/A   Unknown
11:11 PM 28.4°F 26.6°F 93% 30.30 in 1.0 miles Calm Calm - N/A   Unknown
11:13 PM 28.4°F 26.6°F 93% 30.30 in 2.0 miles Calm Calm - N/A   Partly Cloudy
11:20 PM 28.4°F 26.6°F 93% 30.30 in 6.0 miles Calm Calm - N/A   Partly Cloudy
11:53 PM 27.0°F 25.0°F 92% 30.33 in 3.0 miles Calm Calm - N/A   Clear
Moon Phase
Jan. 17 Jan. 18 Jan. 26 Feb. 03 Feb. 10
Sunrise:07:56 AM (PST) Moon Rise:10:28 AM (PST)1/17
Sunset:04:45 PM (PST) Moon Set:No Moon Set/

Copyright © 2014 The Weather Underground, Inc.